Location: Karcze
(52.0945°N, 22.4786°E)
Time: 11:58:45
(UTC+00:00)

Cosmos 676 Rocket - Pass Details

Date: 14 July 2020
Orbit: 753 x 785 km, 74.0° (Epoch: 07 August)

Event Time Altitude Azimuth Distance (km) Brightness Sun altitude
Exits shadow 01:16:40 10° 209° (SSW) 2,304 5.8 -8.4°
Maximum altitude 01:21:55 79° 296° (WNW) 795 4.1 -7.9°
Drops below altitude 10° 01:27:15 10° 24° (NNE) 2,344 8.0 -7.4°
Sets 01:29:40 0° 25° (NNE) 3,280 9.1 -7.1°
